Probability
25 24 27 29 25 19 17 19 21 22 24 23 19 14 13 14 15 16 17 20 21 22 22 19 15 12 12 14 16 14 12 12 11 8 4 3 2 1 0 0 0 0 0
25 24 26 29 27 21 21 23 23 24 25 24 20 17 15 14 15 18 18 16 17 19 20 18 15 13 13 15 16 16 15 14 12 9 7 4 3 3 1 0 0 0 0
24 23 24 28 29 25 24 24 24 24 24 23 21 19 17 16 19 21 18 13 13 16 19 18 17 17 16 17 17 17 18 16 13 10 7 5 4 4 3 1 1 0 0
23 20 21 26 29 28 24 22 22 23 22 22 22 20 19 19 20 19 15 11 10 14 18 19 21 21 20 19 18 17 17 15 13 11 9 7 6 5 4 3 2 1 0
20 18 18 22 26 27 24 21 23 25 24 22 20 17 16 16 16 14 12 9 9 12 15 17 20 20 19 18 18 17 15 13 13 13 12 10 10 9 6 4 3 1 0
20 19 18 20 24 25 22 20 23 26 26 23 15 10 9 10 11 12 12 10 10 11 13 15 16 16 15 15 16 17 15 12 11 11 11 10 11 10 7 4 3 2 1
24 22 21 22 24 24 21 19 20 23 25 22 15 8 5 6 9 13 14 13 11 11 12 14 15 13 12 12 13 14 13 10 8 8 7 7 8 8 5 3 3 2 1
27 24 24 25 24 25 24 19 18 20 21 19 16 9 5 6 9 12 14 13 11 11 13 14 15 14 12 10 9 9 8 7 7 7 5 4 5 4 3 2 2 2 2
25 25 25 24 23 26 25 20 16 16 16 16 15 11 7 7 9 12 12 11 11 12 13 14 15 14 13 10 7 5 4 5 6 6 5 4 4 3 3 2 1 1 2
23 23 23 23 22 23 21 17 13 12 12 12 13 11 9 9 9 9 9 9 10 10 12 13 13 12 11 10 7 3 2 2 3 4 4 4 3 3 3 3 1 0 1
22 22 21 21 21 19 16 15 13 11 10 9 10 10 9 9 9 7 6 7 9 9 9 11 11 9 8 8 6 3 1 0 1 2 3 3 3 3 3 3 2 1 0
20 18 17 18 18 17 15 15 13 10 8 8 8 8 7 6 7 6 4 5 7 8 8 9 8 7 5 4 3 1 0 0 0 1 1 2 2 3 3 3 2 1 0
15 14 13 14 14 13 13 13 11 7 5 5 6 5 4 4 4 4 3 4 6 8 8 7 6 5 3 1 1 0 0 0 0 0 0 1 1 1 2 3 2 1 0
11 10 10 11 11 9 9 10 9 6 4 4 4 4 4 3 3 3 3 3 5 6 7 6 4 2 1 0 0 0 0 0 0 0 0 0 0 1 1 1 1 0 0
8 7 7 7 7 6 6 8 8 7 6 5 4 4 4 3 3 2 3 3 3 3 3 3 2 1 0 0 0 0 0 0 0 0 0 0 0 0 0 0 0 0 0
6 5 4 4 4 4 5 6 7 6 5 5 4 3 3 2 1 1 1 2 2 1 0 1 1 0 0 0 0 0 0 0 0 0 0 0 0 0 0 0 0 0 0
5 4 3 3 3 3 3 4 5 4 3 2 2 1 1 1 0 0 0 1 1 0 0 0 0 0 0 0 0 0 0 0 0 0 0 0 0 0 0 0 0 0 0
4 3 3 3 3 1 1 1 2 2 1 0 0 0 0 0 0 0 0 0 0 0 0 0 0 0 0 0 0 0 0 0 0 0 0 0 0 0 0 0 0 0 0
4 4 3 3 2 1 0 0 0 0 0 0 0 0 1 1 0 0 0 0 0 0 0 0 0 0 0 0 0 0 0 0 0 0 0 0 0 0 0 0 0 0 0
5 4 4 3 1 0 0 0 0 0 0 0 0 0 1 1 0 0 1 0 0 0 0 0 0 0 0 0 0 0 0 0 0 0 0 0 0 0 0 0 0 0 0
4 4 3 2 1 0 0 0 0 0 0 0 0 0 1 1 0 0 0 0 0 0 0 0 0 0 0 0 0 0 0 0 0 0 0 0 0 0 0 0 0 0 0
2 2 2 1 1 0 0 0 0 0 1 1 0 0 0 0 0 0 0 0 0 0 0 0 0 0 0 0 0 0 0 0 0 0 0 0 0 0 0 0 0 0 0
1 1 2 2 2 1 0 0 0 1 2 1 0 0 0 0 0 0 0 0 0 0 0 0 0 0 0 0 0 0 0 0 0 0 0 0 0 0 0 0 0 0 0
0 0 1 2 3 2 1 0 0 1 1 1 0 0 0 0 0 0 0 0 0 0 0 0 0 0 0 0 0 0 0 0 0 0 0 0 0 0 0 0 0 0 0
1 0 0 1 2 2 1 0 0 0 0 0 0 0 0 0 0 0 0 0 0 0 0 0 0 0 0 0 0 0 0 0 0 0 0 0 0 0 0 0 0 0 0
1 1 0 0 1 1 0 0 0 0 0 0 0 0 0 0 0 0 0 0 0 0 0 0 0 0 0 0 0 0 0 0 0 0 0 0 0 0 0 0 0 0 0
Wind_Speed
2 2 1 1 2 2 2 2 3 3 2 3 3 3 3 3 1 1 3 5 4 3 4 5 5 5 6 6 7 7 7 7 8 8 7 7 7 6 5 6 6 6 7
2 2 2 2 2 2 2 2 3 2 2 2 3 3 3 2 1 1 2 4 5 4 4 5 5 5 6 6 6 6 6 6 6 6 6 7 7 7 6 6 6 6 6
2 3 2 2 2 3 2 2 3 2 2 3 3 3 2 2 1 1 2 2 3 4 5 5 4 5 5 6 5 5 6 5 5 5 6 6 6 6 5 5 4 4 5
2 2 2 2 3 2 1 2 2 2 2 2 2 2 1 1 2 2 1 2 2 2 2 3 3 4 4 5 5 5 5 5 5 5 4 5 4 4 4 4 4 4 4
2 2 2 2 3 2 2 3 1 2 2 2 2 2 2 2 2 2 1 1 2 2 2 4 4 4 4 5 5 4 4 5 5 4 4 4 4 4 3 4 4 4 4
2 2 2 2 2 2 2 2 2 2 2 2 3 2 1 2 1 1 1 1 1 2 2 2 3 3 4 4 4 3 3 4 4 4 4 4 3 3 3 3 3 3 4
2 2 2 2 2 2 1 2 2 3 2 1 1 2 2 2 2 1 1 0 0 0 1 2 2 1 2 3 2 2 2 2 3 4 4 3 2 2 2 3 3 3 4
1 2 1 2 2 2 2 2 2 2 2 1 1 1 1 1 1 0 1 1 1 1 1 2 2 2 1 2 3 3 1 1 2 2 2 2 2 3 3 2 3 3 3
1 1 2 2 2 2 1 2 1 2 3 2 1 1 1 1 1 0 0 0 0 0 0 1 2 2 2 3 3 4 3 2 2 2 2 2 2 2 3 2 2 2 3
1 1 1 1 2 2 2 3 2 2 3 3 2 2 2 1 1 1 1 0 0 0 0 1 2 2 2 3 4 5 5 3 2 2 2 1 1 2 3 2 2 2 2
1 1 1 2 2 1 2 2 2 3 2 3 2 2 2 2 2 2 1 1 1 1 1 1 1 1 2 3 3 5 5 4 2 2 1 1 1 2 2 2 2 2 2
1 1 2 2 2 2 2 2 2 3 3 3 2 2 2 2 2 1 1 1 1 1 1 1 1 2 2 3 4 6 5 4 3 2 2 2 1 1 1 0 0 1 2
1 2 2 1 2 2 2 2 2 2 3 3 3 2 2 2 2 1 1 1 1 1 1 1 1 2 2 3 3 6 4 5 4 3 2 2 2 1 1 1 1 1 2
1 1 1 1 2 3 3 2 2 2 2 3 3 3 2 2 2 1 1 0 0 0 1 1 1 2 2 3 4 5 4 5 4 3 3 2 1 1 1 1 1 1 2
2 2 2 2 2 3 3 3 2 2 2 3 3 3 2 2 2 1 1 1 1 1 1 2 1 2 1 2 5 3 3 5 6 5 4 3 2 1 1 0 0 1 2
2 2 2 3 3 3 2 3 2 2 2 2 2 2 2 2 2 1 1 1 1 1 1 1 1 2 2 2 5 3 3 6 7 7 6 5 4 3 2 2 1 1 2
2 2 2 2 3 2 2 2 2 2 2 2 3 3 3 3 2 2 1 1 1 1 1 1 1 2 2 2 3 3 3 4 5 8 8 7 6 5 4 3 3 2 2
2 2 2 3 3 2 2 2 3 3 2 3 3 3 3 3 3 2 2 1 1 1 1 1 1 1 2 2 3 3 4 4 4 8 10 9 8 7 6 5 4 3 3
2 2 2 2 3 3 2 3 3 3 3 3 3 3 3 3 3 2 3 2 1 1 1 2 2 1 1 2 2 3 3 2 3 6 10 9 9 9 8 7 6 5 4
2 2 2 2 3 3 3 4 4 3 3 3 3 2 2 2 2 3 2 2 2 1 1 1 2 1 1 1 1 2 2 2 2 4 6 7 9 10 10 8 8 7 6
2 2 3 3 3 3 5 6 5 4 4 4 3 2 2 1 1 1 1 1 1 1 0 0 1 1 1 1 2 2 2 2 2 2 3 4 4 5 6 8 9 8 7
3 3 3 3 4 4 6 7 5 4 4 4 4 3 2 2 1 2 3 2 2 2 1 1 1 1 2 2 1 2 2 2 2 2 2 3 4 4 5 5 9 11 10
2 2 3 3 3 3 5 6 7 4 4 3 3 4 4 2 1 1 1 3 4 5 6 3 3 3 2 2 2 3 2 2 2 2 1 2 3 3 4 5 11 12 11
2 2 2 2 2 2 4 6 8 5 4 4 3 3 3 2 3 3 2 2 1 2 4 4 3 3 2 1 2 2 3 3 2 3 2 2 2 2 3 3 10 13 13
1 2 1 1 1 1 3 5 6 4 3 4 3 2 2 2 3 3 2 2 2 2 1 1 2 3 4 5 3 1 2 2 2 2 2 2 2 2 2 3 6 12 12
1 1 1 1 1 0 1 3 4 3 3 3 3 2 3 2 2 3 2 2 2 2 1 2 2 4 5 6 6 5 4 3 2 2 2 2 2 2 2 2 3 5 7
Wind_Direction
301 309 289 271 263 256 244 253 243 255 263 272 267 265 274 270 239 158 146 167 164 178 202 208 209 211 212 212 215 211 211 218 219 214 212 213 215 216 218 222 222 220 220
306 300 291 284 288 286 266 264 274 274 268 270 276 272 268 273 249 187 159 169 178 187 204 208 207 205 208 210 214 214 213 218 220 216 213 212 213 213 216 221 222 221 219
303 295 293 287 290 285 284 283 278 276 270 269 268 264 256 255 258 220 179 170 179 197 204 201 192 193 198 201 204 205 205 207 211 210 209 209 209 208 212 214 211 212 212
318 307 304 305 295 291 289 280 284 295 292 292 283 279 270 247 220 217 211 187 185 194 186 186 177 186 188 190 197 204 206 206 206 207 202 198 203 206 206 205 203 208 211
320 309 296 300 298 302 305 297 326 311 297 288 274 251 236 233 220 224 204 209 188 185 172 170 172 178 186 192 194 201 211 211 206 205 205 199 195 202 199 193 198 207 214
320 316 301 307 310 317 314 313 318 301 285 282 283 288 265 257 219 227 221 235 197 183 179 167 168 179 182 190 190 200 213 213 209 208 211 210 200 206 198 198 205 215 219
327 314 317 319 317 308 306 310 307 295 282 280 288 287 270 232 213 196 153 204 237 123 139 138 145 148 168 157 155 174 206 216 208 205 204 205 193 185 196 206 218 228 226
337 330 330 315 325 313 313 305 306 297 292 278 270 283 278 264 260 199 142 176 186 151 170 144 126 124 153 137 109 97 87 97 138 154 161 173 178 182 197 213 227 234 228
4 342 336 319 322 309 322 311 319 298 294 282 259 243 259 253 314 237 239 42 307 135 141 139 131 127 126 118 119 94 92 93 111 113 117 117 144 184 195 210 227 239 223
344 356 333 338 346 339 339 317 347 317 304 297 276 245 245 237 238 249 234 201 275 242 166 186 136 137 115 104 108 110 101 82 93 114 118 141 167 180 193 194 215 235 232
331 16 3 8 355 346 341 326 326 320 313 310 308 305 301 271 241 228 233 209 238 237 178 153 128 126 119 119 128 120 119 108 98 107 121 145 157 171 181 201 222 247 253
322 25 17 7 337 324 320 320 322 318 315 314 311 304 302 292 278 250 244 228 214 191 192 151 153 151 138 114 115 124 126 125 120 110 104 92 95 106 120 156 319 310 290
9 25 9 349 326 311 315 322 319 312 314 317 317 309 300 288 285 276 262 262 270 136 179 193 166 148 145 125 129 142 144 146 146 134 111 93 87 84 85 74 43 358 345
3 354 334 341 322 319 328 325 314 311 329 322 316 315 300 286 281 267 236 227 241 175 186 200 171 160 150 145 151 162 159 166 169 161 152 149 132 93 93 83 52 19 349
350 345 338 344 338 333 334 329 318 339 344 332 319 317 302 292 283 267 235 198 194 212 213 192 167 170 163 145 163 183 166 180 184 182 182 186 186 170 156 154 25 349 332
357 328 332 332 325 325 330 327 323 339 339 329 313 321 319 318 321 302 258 253 234 211 216 205 199 176 179 183 184 196 180 181 191 193 196 196 198 198 207 224 231 262 296
327 314 320 314 313 326 338 327 315 322 327 331 332 337 336 339 326 311 297 269 266 231 228 224 179 169 194 199 187 203 185 189 191 197 198 200 203 205 213 225 231 245 273
313 323 319 319 318 334 339 334 334 341 342 346 344 345 343 346 341 334 325 313 295 235 203 199 195 180 215 210 198 210 209 202 191 190 197 203 207 209 213 220 225 233 246
321 322 326 330 338 340 353 353 353 349 344 336 339 341 341 349 335 334 330 322 301 282 210 184 203 198 216 216 213 231 237 218 207 183 194 206 214 216 217 219 223 225 230
325 335 336 345 352 355 9 6 358 346 338 333 339 343 340 343 332 322 319 327 329 317 236 186 188 189 196 220 213 236 249 226 223 193 195 199 210 217 219 220 223 223 223
341 353 354 358 359 11 21 10 349 348 342 333 333 330 317 329 325 293 315 334 336 325 294 229 203 175 198 211 225 237 243 243 249 218 193 203 200 209 213 220 222 219 218
355 354 355 1 9 22 22 17 360 341 333 325 324 316 288 245 228 220 238 252 247 244 233 233 245 219 225 230 232 251 244 229 250 229 205 225 202 209 206 204 206 206 210
351 343 353 12 26 32 17 3 358 328 317 313 314 311 314 352 14 352 256 242 243 234 224 226 234 241 237 235 231 254 265 259 252 229 208 255 232 218 213 205 195 198 203
345 334 339 3 11 26 4 349 342 320 306 297 289 298 311 353 13 357 322 315 283 250 229 222 233 241 246 262 254 247 258 262 259 253 214 238 252 239 232 195 195 197 201
318 307 322 360 10 5 346 344 339 315 310 314 315 347 355 47 31 9 326 310 307 296 298 241 240 257 273 273 267 284 273 258 267 260 219 217 252 256 237 209 200 203 209
291 288 312 312 317 320 323 336 340 313 319 322 325 2 33 35 26 355 313 302 296 299 312 292 272 260 251 247 235 222 240 253 266 271 234 206 245 263 270 238 192 195 215